Arispe, Iowa
Current Conditions -  °F | °C
As of 5:55 PM on Saturday 22 Nov 2014 (Local Time) from KCSQ Reporting Station
Haze Haze  
Wind Chill: 54°   Ceiling: 300
Heat Index: 54°   Visibility: 2.5mi
Dew Point: 54°   Wind: 20mph
Humidity: 100%   Direction: 180°S
Pressure: 29.69"   Gusts: NA
Location:  40.95°N, 94.22°W
Report Text: KCSQ 222355Z AUTO 18017KT 2 1/2SM BR OVC003 12/12 A2969 RMK AO2
Loading
Personal Weather Stations






























Interactive Weather Map New forecast layout! Learn more

10-Day Weather Forecast

Advertisements
Track Severe Weather on mobile